Flag for U.S.A. Weather past 2 weeks in Long Beach, California, U.S.A.

61 °F

Mostly cloudy.

Feels Like: 61 °F
Forecast: 51 / 63 °F
Wind: No wind

Location: Long Beach Airport

Current Time: Nov 25, 2015 at 12:28:14 AM

Latest Report: Nov 24, 2015 at 11:53 PM

Visibility: 10 mi

Pressure: 29.87 "Hg

Humidity: 78%

Dew point: 54 °F

Location of Long BeachLocation

Historic Weather in Long Beach — Graph


Long Beach temperature yesterday

Maximum temperature yesterday: 69 °F (at 10:53 AM)
Minimum temperature yesterday: 56 °F (at 12:53 AM)
Average temperature yesterday: 61 °F

Past Weeks' High & Low Weather Summary

High90 °F (Nov 21, 12:53 PM)87% (Nov 23, 11:53 PM)30.30 "Hg (Nov 23, 11:53 PM)
Low46 °F (Nov 17, 4:53 AM)7% (Nov 12, 2:53 PM)29.85 "Hg (Nov 15, 1:53 PM)
Average63 °F44%29.99 "Hg
* Reported Nov 9 10:53 PM — Nov 24 10:53 PM, Long Beach, Weather by CustomWeather, © 2015

Note: Actual official high and low records may vary slightly from our data, if they occured in-between our weather recording intervals... More about our weather records


Long Beach weather history for previous 24 hours

Time TempWeatherWind HumidityBarometerVisibility
10:53 PM
Tue, Nov 24
62 °FPassing clouds.3 mph65%29.89 "Hg10 mi
9:53 PM61 °FMostly cloudy.No wind65%29.90 "Hg10 mi
8:53 PM62 °FPassing clouds.No wind62%29.90 "Hg10 mi
7:53 PM62 °FPassing clouds.5 mph62%29.90 "Hg10 mi
6:53 PM61 °FClear.3 mph65%29.88 "Hg10 mi
5:53 PM62 °FMostly cloudy.7 mph65%29.89 "Hg10 mi
4:53 PM62 °FPassing clouds.8 mph67%29.88 "Hg10 mi
3:53 PM65 °FScattered clouds.8 mph66%29.89 "Hg10 mi
2:53 PM66 °FSunny.7 mph61%29.89 "Hg10 mi
1:53 PM66 °FPartly sunny.7 mph63%29.89 "Hg10 mi
12:53 PM67 °FScattered clouds.8 mph63%29.91 "Hg10 mi
11:53 AM68 °FScattered clouds.8 mph63%29.94 "Hg10 mi
10:53 AM69 °FScattered clouds.8 mph61%29.96 "Hg10 mi
9:53 AM67 °FPassing clouds.5 mph55%29.98 "Hg10 mi
8:53 AM61 °FPartly sunny.No wind58%29.98 "Hg10 mi
7:53 AM58 °FOvercast.No wind54%29.96 "Hg10 mi
6:53 AM56 °FPartly sunny.No wind65%29.96 "Hg10 mi
5:53 AM56 °FClear.No wind62%29.94 "Hg10 mi
4:53 AM58 °FOvercast.No wind62%29.94 "Hg10 mi
4:03 AM57 °FPassing clouds.No wind67%29.94 "Hg10 mi
3:53 AM56 °FPassing clouds.No wind70%29.94 "Hg10 mi
2:53 AM57 °FPassing clouds.No wind69%29.94 "Hg10 mi
1:53 AM56 °FPassing clouds.No wind75%29.94 "Hg10 mi
12:53 AM56 °FClear.No wind87%29.94 "Hg9 mi
Weather by CustomWeather, © 2015

See weather overviewHow to use our weather pages